Tracking 25734 objects as of 26-May-2022
HD Live streaming from Space Station
objects crossing your sky now

CZ-3B DEB

Track CZ-3B DEB now!


NORAD ID: 42461
Int'l Code: 2010-042AC
Perigee: 1,285.3 km
Apogee: 43,445.5 km
Inclination: 23.5 °
Period: 808.0 minutes
Semi major axis: 28736 km
RCS: Unknown
Launch date: September 4, 2010
Source: People's Republic of China (PRC)
Launch site: Xichang Space Center, China (XSC)

Note: This is SATELLITE DEBRIS
aabbcc
Your satellite tracking list
Your tracking list is empty




NASA's NSSDC Master Catalog

Two Line Element Set (TLE):
1 42461U 10042AC  22142.82167562 -.00000311  00000-0  00000-0 0  9998
2 42461  23.4883 335.8252 7335673  75.5887 349.6620  1.78218980 52976
Source of the keplerian elements: AFSPC